Regional Weather Roundup
Issued by NWS

Home | Current Version | Previous Version | Graphics & Text | Print | Product List | Glossary On
Versions: 1 2 3 4 5 6 7 8 9 10 11 12 13 14 15 16 17 18 19 20 21 22 23 24 25 26 27 28 29 30 31 32 33 34 35 36 37 38 39 40 41 42 43 44 45 46 47 48 49 50
000
ASUS45 KTFX 280904
RWRMT
MONTANA HOURLY WEATHER ROUNDUP
NATIONAL WEATHER SERVICE GREAT FALLS MT
204 AM MST SAT FEB 28 2015

NOTE: "FAIR" INDICATES FEW OR NO CLOUDS BELOW 12000 FEET WITH NO
SIGNIFICANT WEATHER AND/OR OBSTRUCTIONS TO VISIBILITY.

* THESE STATIONS ARE NOT UNDER NWS QUALITY CONTROL. THEY DO NOT
   REPORT WEATHER SUCH AS PRECIPITATION OR FOG.

MTZ001>007-043-281000-
WEST OF THE DIVIDE
CITY           SKY/WX    TMP DP  RH WIND       PRES   REMARKS
KALISPELL      CLEAR     21   7  55 NE14      30.05S WCI   8
MISSOULA       CLOUDY    23   5  46 E13       30.01R WCI  11
BUTTE          LGT SNOW  12   7  80 W5        29.91R WCI   4
MULLAN PASS    PTCLDY    12   7  80 SE8G16    29.80R
* ANACONDA     MOCLDY    12   7  80 N9         N/A
* ESSEX        N/A        9   2  73 S1G10      N/A
* LINCOLN      N/A       12   3  67 NE10G19    N/A   WCI  -1
* LOOKOUT PASS N/A       21   9  60 SW6        N/A   WCI  13
* POLSON       N/A       21   5  50 NE4        N/A
* RONAN APT    PTCLDY    27   7  42 E9         N/A   WCI  18
* SEELEY LAKE  N/A       12   5  73 N/A        N/A
* THOMP F APT  CLEAR     17   7  65 N4G12      N/A
$$

MTZ008-052>055-281000-
SOUTHWEST MONTANA
CITY           SKY/WX    TMP DP  RH WIND       PRES   REMARKS
BOZEMAN        CLOUDY    16  10  77 W7        29.98R WCI   6
DILLON         CLOUDY    16   7  67 NE20      29.87R WCI  -1
* W YELLOWSTON PTCLDY     2  -3  79 N/A        N/A
* THREE FORKS  MOCLDY    18   7  62 N/A        N/A
* BOULDER HILL N/A        8   3  80 N14        N/A   WCI  -9
* MONIDA PASS  N/A       12   7  80 NE13       N/A   WCI  -3
* RAYNOLDS PAS N/A        6   6 100 N9         N/A   WCI  -8
* WHITEHALL    N/A       16   6  64 NE7G14     N/A   WCI   6
* WISE RIVER   N/A       16   4  59 E12G17     N/A   WCI   3
$$

MTZ009>010-012-014-046-048-049-054-281000-
EAST SLOPES AND CENTRAL MONTANA
CITY           SKY/WX    TMP DP  RH WIND       PRES   REMARKS
CUT BANK       CLOUDY     9   5  84 NW10      30.10S WCI  -5
GREAT FALLS    LGT SNOW  12  10  92 N10       30.11R VSB 2 1/2 WCI  -1
HELENA         CLOUDY    16   9  74 NW8       30.07R WCI   5
MALMSTROM AFB  LGT SNOW  14  10  84 N9        30.13R WCI   2
* DEARBORN     N/A       16  12  84 SW2        N/A
* EAST GLACIER N/A       10   5  80 E6         N/A
* MONARCH      N/A        7   3  83 NW3        N/A
* PENDROY      N/A       11   9  92 N11        N/A   WCI  -3
* ROGERS PASS  N/A        7   3  83 S4G9       N/A
* SWEET GRASS  N/A        8   6  91 N7         N/A   WCI  -3
$$

MTZ011-013-016-021-035-040-045-047-050-051-281000-
NORTH CENTRAL MONTANA
CITY           SKY/WX    TMP DP  RH WIND       PRES   REMARKS
HAVRE          CLOUDY    10   7  88 W10       30.17R WCI  -4
LEWISTOWN      LGT SNOW  10   7  88 W9        30.06S WCI  -3
* N BAR RANCH  CLOUDY    10   5  80 NW15      30.01R WCI  -7
* CHESTER      N/A       11   6  80 SW3        N/A
* DENTON       N/A       12   7  80 NW3        N/A
* GEYSER       N/A       12   7  80 W13        N/A   WCI  -3
* JUDITH GAP   N/A        9   7  91 N19G26     N/A   WCI -10
* LOMA         N/A       14   9  80 W3         N/A
$$

MTZ017>020-022>027-061-062-281000-
NORTHEAST MONTANA
CITY           SKY/WX    TMP DP  RH WIND       PRES   REMARKS
GLASGOW        CLOUDY     9   0  66 NW7       30.13R WCI  -2
GLENDIVE       CLEAR      9   3  76 NW15      30.05R WCI  -8
JORDAN         PTCLDY     7   3  83 W6        30.11S WCI  -4
SIDNEY         CLOUDY    12   3  67 NW15G21   30.09R WCI  -4
WOLF POINT     CLEAR      7  -2  66 W5        30.14R WCI  -2
* BEAVER HILL  N/A       10   5  80 W8         N/A   WCI  -2
* CIRCLE       N/A        7   0  73 W6         N/A   WCI  -4
* LINDSAY DVD  N/A        6   4  91 NW10G15    N/A   WCI  -9
* NAVAJO       N/A      N/A N/A N/A NW10       N/A
* SACO         N/A       13   6  73 W6         N/A   WCI   4
$$

MTZ028>042-056>058-281000-
SOUTHCENTRAL AND SOUTHEAST MONTANA
CITY           SKY/WX    TMP DP  RH WIND       PRES   REMARKS
BAKER          CLEAR      9   3  76 W8        30.02R WCI  -3
BILLINGS       CLOUDY    18   7  62 CALM      30.06R
LIVINGSTON     CLOUDY    16   7  67 NE6       29.98S WCI   7
MILES CITY     CLEAR      5   1  83 W8        30.09R WCI  -8
* LAUREL APT   CLEAR     16   7  67 N/A        N/A
* ROUNDUP APT  CLEAR     16   3  56 NW5        N/A   WCI   8
* ALZADA       N/A       13   7  77 W9         N/A   WCI   1
* HYSHAM       N/A       12   6  77 NW2        N/A
* LAME DEER    N/A        9   3  76 W6         N/A   WCI  -1
* REED POINT   N/A       17   9  71 E2         N/A
$$

REGIONAL REPORTS...DAKOTAS
CITY           SKY/WX    TMP DP  RH WIND       PRES   REMARKS
WILLISTON      CLOUDY     9   1  70 N12       30.08R WCI  -6
DICKINSON      MOCLDY     7   1  76 S7        29.98S WCI  -5
BEACH          CLOUDY    10   7  88 W9        30.02R WCI  -3
CROSBY         FAIR      -2  -6  83 NW14      30.09S WCI -21
WATFORD CITY   MOCLDY     7   3  83 SW3       30.02R
BISMARCK       CLOUDY    10   1  67 SE13      30.11F WCI  -5
GRAND FORKS    PTCLDY     1  -6  72 S12       30.28F WCI -16
FARGO          PTCLDY     7   0  73 S15       30.31F WCI -10
BUFFALO SD     PTCLDY     7   3  83 W8        29.93R WCI  -6
RAPID CITY     PTCLDY     9   5  84 CALM      30.00S
$$

REGIONAL REPORTS...WYOMING/IDAHO/WASHINGTON
CITY           SKY/WX    TMP DP  RH WIND       PRES   REMARKS
GILLETTE       CLEAR      5   1  83 CALM      29.97R
SHERIDAN       CLOUDY    12   5  73 W13       30.04R WCI  -3
CODY           CLOUDY    10   9  96 NE12      29.93R WCI  -5
YELLOWSTONE LA PTCLDY    -8 -11  86 NW3       29.77S
SALMON         MOCLDY   N/A N/A N/A E14       29.80R
MULLAN PASS    PTCLDY    12   7  80 SE8G16    29.80S
SAND POINT     CLEAR     32   9  38 NE21G26   30.00R WCI  20
SPOKANE        PTCLDY    32  12  43 NE15      29.92R WCI  22
$$

REGIONAL REPORTS...ALBERTA
CITY           SKY/WX    TMP DP  RH WIND       PRES   REMARKS
LETHBRIDGE     CLEAR      5   1  83 SW8       30.17S WCI  -8

$$



USA.gov is the U.S. government's official web portal to all federal, state and local government web resources and services.